Retour au catalogue

STARLINK-37175

ActifCommunicationsSSO
NORAD 68401·PAYLOAD·🇺🇸 United States

Lancé Mar 26, 2026 depuis Vandenberg Space Force Base

Loading…

Prochains Passages (prochaines 24 heures)

TLE

FraisSource: CelesTrak SupGP

Époque: Sep 14, 2026, 23:07 UTC

1 68401C 26063X   26257.96368056 -.00031269  00000+0 -97023-3 0  2574
2 68401  97.2864  38.8649 0001198  94.2039  55.4705 15.33469359    16

Suivez STARLINK-37175 en temps réel avec AllMySat

Download on the App Store